Regional Weather Roundup
Issued by NWS Sioux Falls, SD

Home | Current Version | Previous Version | Graphics & Text | Print | Product List | Glossary On
Versions: 1 2 3 4 5 6 7 8 9 10 11 12 13 14 15 16 17 18 19 20 21 22 23 24 25 26 27 28 29 30 31 32 33 34 35 36 37 38 39 40 41 42 43 44 45 46 47 48 49 50
000
ASUS43 KFSD 312310
RWRFSD

WEATHER ROUNDUP FOR SE SOUTH DAKOTA/SW MINNESOTA/NW IOWA
NATIONAL WEATHER SERVICE SIOUX FALLS SD
500 PM CST SAT JAN 31 2015

NOTE: "FAIR" INDICATES FEW OR NO CLOUDS BELOW 12,000 FEET WITH NO
SIGNIFICANT WEATHER AND OR OBSTRUCTIONS TO VISIBILITY.


SDZ038>040-050-052>070-010000-
SOUTHEAST SOUTH DAKOTA

CITY           SKY/WX    TMP DP  RH WIND       PRES   REMARKS
CHAMBERLAIN    CLOUDY    21  18  88 NE13G21   30.07S WCI   8
HURON          CLOUDY    21  17  84 NE18      30.12S WCI   6
MADISON        FOG       21  21 100 NE22      30.06S VSB 1   WCI   5
MITCHELL       CLOUDY    26  23  88 NE16      30.08S WCI  14
SIOUX FALLS    LGT SNOW  26  23  88 NE17      30.04F VSB 3/4 WCI  13
WINNER         FRZ RAIN  22  19  89 NE18      30.04R FOG     WCI   7
YANKTON        CLOUDY    28  25  86 NE17      30.01F WCI  16
$$

MNZ071-072-080-081-089-090-097-098-010000-
SOUTHWEST MINNESOTA

CITY           SKY/WX    TMP DP  RH WIND       PRES   REMARKS
FAIRMONT       CLOUDY    28  25  86 NE13      30.08S WCI  18
JACKSON        LGT SNOW  28  27  93 NE14      30.07F WCI  17
LUVERNE        LGT SNOW  28  27  93 NE15      30.05F VSB 3/4 WCI  17
MARSHALL       CLOUDY    25  19  80 NE16      30.15S WCI  12
MONTEVIDEO     CLOUDY    27  19  74 E5        30.18S WCI  21
PIPESTONE      LGT SNOW  25  23  93 E9        30.06S WCI  15
REDWOOD FALLS  CLOUDY    27  21  78 NE8G18    30.15S WCI  19
TRACY          CLOUDY    26  25  96 NE12      30.12S FOG     WCI  16
WINDOM         LGT SNOW  27  27 100 NE10G17   30.09S WCI  17
WORTHINGTON    CLOUDY    27  23  86 NE16      30.07S WCI  14
$$

IAZ001>003-012>014-020>022-031-032-NEZ013-014-SDZ071-010000-
NORTHWEST IOWA

CITY           SKY/WX    TMP DP  RH WIND       PRES   REMARKS
CHEROKEE       LGT SNOW  29  29 100 NE8       30.03F WCI  21
DENISON        LGT SNOW  32  32 100 E5        29.98F VSB 3/4 WCI  27
ESTHERVILLE    LGT SNOW  28  27  96 NE12      30.06F VSB 1   WCI  18
LE MARS        LGT SNOW  30  30 100 NE14      30.02S WCI  20
ORANGE CITY    LGT SNOW  28  27  93 E10G17    30.01F VSB 3/4 WCI  19
SHELDON        LGT SNOW  27  28 100 E18G25    30.02F WCI  13
SIOUX CITY     LGT SNOW  33  32  96 E7        30.00F VSB 3/4 WCI  27
SPENCER        LGT SNOW  29  27  92 NE14      30.05F VSB 3/4 WCI  18
STORM LAKE     LGT SNOW  28  28 100 NE14      30.03S VSB 3/4 WCI  17
$$

ABBREVIATIONS USED IN REMARKS
   TC - TEMPERATURE IN CELSIUS
  WCI - WIND CHILL INDEX
   HX - HEAT INDEX
  VSB - VISIBILITY



USA.gov is the U.S. government's official web portal to all federal, state and local government web resources and services.